Hourly Data Report for August 29, 2003

TORONTO CITY
ONTARIO

43°40'00.000" N
79°24'00.000" W
112.50 m
6158355
71508
XTO

Download Data

Hourly Data (August 2003)
Hourly Data Report for August 29, 2003
TIME
LST
Temp Definition
°C
Dew Point Definition
°C
Rel Hum Definition
%
Precip. Amount Definition
mm

Wind Dir Definition
10's deg

Wind Spd Definition
km/h
Visibility Definition
km
Stn Press Definition
kPa
Hmdx Definition


Wind Chill Definition


Weather Definition


00:00 18.0 16.7 92   LegendMM LegendMM LegendMM 100.09     LegendNANA
01:00 17.7 16.4 92   LegendMM LegendMM LegendMM 100.04     LegendNANA
02:00 17.6 16.5 93   LegendMM LegendMM LegendMM 99.96     LegendNANA
03:00 17.5 16.5 94   LegendMM LegendMM LegendMM 99.90     LegendNANA
04:00 17.8 16.5 92   LegendMM LegendMM LegendMM 99.83     LegendNANA
05:00 18.1 16.7 92   LegendMM LegendMM LegendMM 99.74     LegendNANA
06:00 19.6 18.6 94   LegendMM LegendMM LegendMM 99.73     LegendNANA
07:00 20.7 18.7 88   LegendMM LegendMM LegendMM 99.69 27   LegendNANA
08:00 23.3 21.2 88   LegendMM LegendMM LegendMM 99.70 32   LegendNANA
09:00 24.7 21.6 83   LegendMM LegendMM LegendMM 99.62 34   LegendNANA
10:00 25.0 22.4 86   LegendMM LegendMM LegendMM 99.65 35   LegendNANA
11:00 27.3 22.7 76   LegendMM LegendMM LegendMM 99.62 37   LegendNANA
12:00 28.9 22.3 68   LegendMM LegendMM LegendMM 99.61 39   LegendNANA
13:00 29.6 20.8 59   LegendMM LegendMM LegendMM 99.59 38   LegendNANA
14:00 30.3 20.1 54   LegendMM LegendMM LegendMM 99.54 38   LegendNANA
15:00 28.8 20.3 60   LegendMM LegendMM LegendMM 99.60 37   LegendNANA
16:00 27.9 18.9 58   LegendMM LegendMM LegendMM 99.63 35   LegendNANA
17:00 26.4 19.3 65   LegendMM LegendMM LegendMM 99.73 33   LegendNANA
18:00 25.1 18.2 66   LegendMM LegendMM LegendMM 99.81 31   LegendNANA
19:00 24.1 17.8 68   LegendMM LegendMM LegendMM 99.90 30   LegendNANA
20:00 22.8 17.2 71   LegendMM LegendMM LegendMM 100.03 28   LegendNANA
21:00 20.7 14.6 68   LegendMM LegendMM LegendMM 100.14     LegendNANA
22:00 19.5 12.1 62   LegendMM LegendMM LegendMM 100.18     LegendNANA
23:00 18.5 11.1 62   LegendMM LegendMM LegendMM 100.23     LegendNANA

Notes on Data Quality.

Legend

  • E = Estimated
  • M = Missing
  • NA = Not Available*
  • [empty] = Indicates an unobserved value
Date modified: